Miscellaneous Local Product
Issued by NWS Hastings, NE

Home | Current Version | Previous Version | Text Only | Print | Product List | Glossary Off
Versions: 1 2 3 4 5 6 7 8 9 10 11 12 13 14 15 16 17 18 19 20 21 22 23 24 25 26 27 28 29 30 31 32 33 34 35 36 37 38 39 40 41 42 43 44 45 46 47 48 49 50

000
AXUS43 KGID 192202
MISGRI

GID CWA HOURLY WEATHER ROUNDUP
NATIONAL WEATHER SERVICE HASTINGS NE
400 PM CST THU JAN 19 2017

NOTE: "FAIR" INDICATES FEW OR NO CLOUDS BELOW 12,000 FEET WITH NO
SIGNIFICANT WEATHER AND/OR OBSTRUCTIONS TO VISIBILITY.

...SOUTH CENTRAL NEBRASKA...

CITY           SKY/WX    TMP DP  RH WIND       PRES   REMARKS
GRAND ISLAND   CLOUDY    41  41 100 S7        29.61S FOG
HASTINGS       CLOUDY    42  41  96 S6        29.62S
KEARNEY        CLOUDY    41  39  93 S7        29.60R
ORD            CLOUDY    41  39  93 S7        29.58R FOG
YORK           MOSUNNY   41  41 100 S6        29.62F
AURORA         CLOUDY    41  41 100 S6        29.61S
LEXINGTON      CLOUDY    42  40  92 S7        29.59R
HOLDREGE       CLOUDY    41  40  97 S6        29.60S FOG
HEBRON         CLOUDY    43  43  98 SE3       29.63R FOG

...NEBRASKA PANHANDLE...

CITY           SKY/WX    TMP DP  RH WIND       PRES   REMARKS
CHADRON        SUNNY     42  26  53 W6        29.48S
ALLIANCE       SUNNY     52  23  32 W7        29.47F
SCOTTSBLUFF    SUNNY     56  23  27 W3        29.49S
SIDNEY         SUNNY     52  31  44 S7        29.50F

...WESTERN AND NORTH CENTRAL NEBRASKA...

CITY           SKY/WX    TMP DP  RH WIND       PRES   REMARKS
VALENTINE      SUNNY     56  21  25 W14       29.46F
AINSWORTH      SUNNY     43  36  77 S14       29.50S
ONEILL         CLOUDY    42  42  99 S12       29.57S FOG
BROKEN BOW     CLOUDY    41  40  96 S8        29.57R
IMPERIAL       SUNNY     44  35  70 S6        29.53S
NORTH PLATTE   CLOUDY    39  39 100 S12       29.56S WCI  32
MCCOOK         CLOUDY    37  36  96 CALM      29.58S FOG

...EASTERN NEBRASKA...

CITY           SKY/WX    TMP DP  RH WIND       PRES   REMARKS
NORFOLK        CLOUDY    40  39  97 SE12      29.62R FOG     WCI  33
SO SIOUX CITY  FOG       41  40  96 SE8       29.66S VSB 1/2
TEKAMAH        FOG       39  38  96 CALM      29.66S VSB 1/2
COLUMBUS       CLOUDY    41  39  93 S7        29.63F
ALBION         CLOUDY    40  40 100 S9        29.61S FOG     WCI  34
OMAHA EPPLEY   CLOUDY    44  39  82 SE9       29.66F FOG
OFFUTT AFB     CLOUDY    43  43 100 E5        29.66F FOG
MILLARD        CLOUDY    44  43  95 SE3       29.66F FOG
LINCOLN        CLOUDY    42  41  96 S3        29.66S FOG
NEBRASKA CITY  CLOUDY    43  43 100 S3        29.66S FOG
BEATRICE       CLOUDY    43  43  99 CALM      29.64S FOG
FALLS CITY     CLOUDY    45  44  97 S7        29.65F

...NORTHERN KANSAS...

CITY           SKY/WX    TMP DP  RH WIND       PRES   REMARKS
GOODLAND       SUNNY     40  36  86 SE9       29.53S WCI  34
HILL CITY      CLOUDY    47  42  83 SE6       29.59R
NORTON         CLOUDY    43  37  81 CALM      29.58S
PHILLIPSBURG   CLOUDY    45  45 100 CALM      29.60S
SMITH CENTER   CLOUDY    43  43 100 CALM      29.61S FOG
HAYS           CLOUDY    45  43  93 SE7       29.59R
RUSSELL        LGT RAIN  46  44  93 SE7       29.57S FOG
CONCORDIA      CLOUDY    44  44 100 SE8       29.61S FOG
SALINA         CLOUDY    48  45  89 SE9       29.61S
TOPEKA         CLOUDY    48  45  89 SE6       29.65F



USA.gov is the U.S. government's official web portal to all federal, state and local government web resources and services.